| ตารางข้อมูล | TH20402 | TH4529A | TH4529D | TH814 | ค้นข้อมูล1 | ค้นข้อมูล2 | ค่าสูงสุด-ต่ำสุด |  

Select Sensor -->| 20402 | 4529A | 4529D | 814 | หน้าจอย่อ | 4529 |
ข้อมูลรวม (ยังไม่ได้เลือกรายการ)

IDRoomDate  Temp  Humidity
 9075  4529A  2021-04-18 01:33:10  28.2  59.0 
 9074  814  2021-04-18 01:23:57  30.7  88.2 
 9073  4529D  2021-04-18 01:16:09  31.8  63.2 
 9072  4529A  2021-04-18 01:13:08  28.1  57.6 
 9071  814  2021-04-18 01:03:54  30.7  88.7 
 9070  4529D  2021-04-18 00:56:06  31.9  62.9 
 9069  4529A  2021-04-18 00:53:05  28.1  55.7 
 9068  814  2021-04-18 00:43:52  30.8  88.7 
 9067  4529D  2021-04-18 00:36:04  32.0  62.7 
 9066  4529A  2021-04-18 00:33:03  28.2  55.3 
 9065  814  2021-04-18 00:23:50  30.8  88.3 
 9064  4529D  2021-04-18 00:16:02  32.1  62.5 
 9063  4529A  2021-04-18 00:13:01  28.1  56.6 
 9062  814  2021-04-18 00:03:47  30.9  88.5 
 9061  4529D  2021-04-17 23:55:59  32.1  62.6 
 9060  4529A  2021-04-17 23:52:58  28.3  55.1 
 9059  814  2021-04-17 23:43:45  30.8  88.4 
 9058  4529D  2021-04-17 23:35:57  32.2  62.3 
 9057  4529A  2021-04-17 23:32:56  28.4  55.7 
 9056  814  2021-04-17 23:23:42  30.8  88.3 
 9055  4529D  2021-04-17 23:15:54  32.3  62.0 
 9054  4529A  2021-04-17 23:12:54  28.4  56.5 
 9053  814  2021-04-17 23:03:40  30.8  88.5 
 9052  4529D  2021-04-17 22:55:52  32.5  61.7 
 9051  4529A  2021-04-17 22:52:51  28.5  56.0 
 9050  814  2021-04-17 22:43:37  30.9  88.4 
 9049  4529D  2021-04-17 22:35:50  32.5  60.9 
 9048  4529A  2021-04-17 22:32:49  28.3  55.4 
 9047  814  2021-04-17 22:23:35  30.8  87.9 
 9046  4529A  2021-04-17 22:12:46  28.7  54.5 
 9045  814  2021-04-17 22:03:33  30.7  87.7 
 9044  4529D  2021-04-17 21:55:39  32.4  59.1 
 9043  4529A  2021-04-17 21:52:44  28.5  52.5 
 9042  814  2021-04-17 21:43:30  30.9  89.3 
 9041  4529D  2021-04-17 21:35:36  32.4  58.8 
 9040  4529A  2021-04-17 21:32:42  28.3  53.8 
 9039  814  2021-04-17 21:23:28  30.9  89.4 
 9038  4529D  2021-04-17 21:15:34  32.5  58.3 
 9037  4529A  2021-04-17 21:12:39  28.8  56.1 
 9036  814  2021-04-17 21:03:25  30.9  89.5 
 9035  4529D  2021-04-17 20:55:31  32.4  56.8 
 9034  4529A  2021-04-17 20:52:37  28.6  56.1 
 9033  814  2021-04-17 20:43:23  30.8  89.5 
 9032  4529D  2021-04-17 20:35:29  32.4  56.4 
 9031  4529A  2021-04-17 20:32:35  29.3  57.1 
 9030  814  2021-04-17 20:23:20  30.8  89.3 
 9029  4529D  2021-04-17 20:15:27  32.6  61.6 
 9028  4529A  2021-04-17 20:12:32  29.5  57.4 
 9027  814  2021-04-17 20:03:18  30.8  89.3 
 9026  4529D  2021-04-17 19:55:24  32.6  61.3 
 9025  4529A  2021-04-17 19:52:30  32.1  59.0 
 9024  814  2021-04-17 19:43:15  30.8  89.3 
 9023  4529D  2021-04-17 19:35:22  32.6  60.7 
 9022  4529A  2021-04-17 19:32:27  32.2  56.5 
 9021  814  2021-04-17 19:23:13  30.8  89.3 
 9020  4529D  2021-04-17 19:15:19  32.5  60.6 
 9019  4529A  2021-04-17 19:12:25  32.2  56.1 
 9018  814  2021-04-17 19:03:10  30.8  89.2 
 9017  4529D  2021-04-17 18:55:17  32.5  61.6 
 9016  4529A  2021-04-17 18:52:22  32.2  55.7 
 9015  814  2021-04-17 18:43:07  30.8  89.3 
 9014  4529D  2021-04-17 18:35:15  32.6  61.1 
 9013  4529A  2021-04-17 18:32:20  32.2  55.4 
 9012  814  2021-04-17 18:23:05  30.8  89.0 
 9011  4529D  2021-04-17 18:15:12  32.6  61.1 
 9010  4529A  2021-04-17 18:12:18  32.2  55.0 
 9009  814  2021-04-17 18:03:02  30.8  89.0 
 9008  4529D  2021-04-17 17:55:10  32.7  61.2 
 9007  4529A  2021-04-17 17:52:15  32.1  54.6 
 9006  814  2021-04-17 17:43:00  30.8  89.1 
 9005  4529D  2021-04-17 17:35:08  32.6  62.1 
 9004  4529A  2021-04-17 17:32:13  32.0  54.3 

Data every 20 minute.